SCP
0 0 0 0 0 0 0 0 0 0 0 0 0 0 0 0 0 0 0 0 0 0 0 0 0 0 0 0 0 0 0 0 0 0 0 0 0 0
0 0 0 0 0 0 0 0 0 0 0 0 0 0 0 0 0 0 0 0 0 0 0 0 0 0 0 0 0 0 0 0 0 0 0 0 0 0
0 0 0 0 0 0 0 0 0 0 0 0 0 0 0 0 0 0 0 0 0 0 0 0 0 0 0 0 0 0 0 0 0 0 0 0 0 0
0 0 0 0 0 0 0 0 0 0 0 0 0 0 0 0 0 0 0 0 0 0 0 0 0 0 0 0 0 0 0 0 0 0 0 0 0 0
0 0 0 0 0 0 0 0 0 0 0 0 0 0 0 0 0 0 0 1 0 0 0 0 0 0 0 0 0 0 0 0 0 0 0 0 0 0
0 0 0 0 0 0 0 0 0 0 0 0 0 0 0 0 0 0 0 0 1 0 0 0 0 0 0 0 0 0 0 0 0 0 0 0 0 0
1 0 0 0 0 0 0 0 0 0 0 0 0 0 0 0 0 0 0 0 0 0 0 0 0 0 0 0 0 0 0 0 0 0 0 0 0 0
1 1 1 0 0 0 0 0 0 0 0 0 0 0 0 0 0 0 0 0 0 0 1 0 0 0 0 0 0 0 0 0 0 0 0 0 0 0
1 1 0 0 0 0 0 0 0 0 0 0 0 0 0 0 0 0 0 0 0 0 0 0 0 0 0 0 0 0 0 0 0 0 0 0 0 0
0 0 0 0 0 0 0 0 0 0 0 0 0 0 0 0 0 0 0 0 0 0 0 0 0 0 0 0 0 0 0 0 0 0 0 0 0 0
0 0 0 0 0 0 0 0 0 0 0 0 0 0 0 0 0 0 0 0 0 0 0 0 0 0 0 0 0 0 0 0 0 0 0 0 0 0
0 0 0 0 0 0 0 0 0 0 0 0 0 0 0 0 0 0 0 0 0 0 0 -0 0 0 0 0 0 0 0 0 0 0 0 0 0 0
0 0 0 0 0 0 0 0 0 0 0 0 0 0 0 0 0 0 0 0 0 0 0 0 0 0 0 0 0 0 0 0 0 0 0 0 0 0
0 0 0 0 0 0 0 0 0 -0 -0 -0 0 0 0 0 0 0 0 0 0 0 0 0 0 0 0 0 0 0 0 0 0 0 0 0 0 0
0 0 0 0 0 0 0 0 0 -0 -0 0 0 0 0 0 0 0 0 -0 0 0 0 0 0 0 0 0 0 0 0 0 0 0 0 0 0 0
0 0 0 0 0 0 0 -0 -0 0 0 0 -0 -0 0 0 0 0 0 -0 0 0 0 0 0 0 0 0 0 0 0 0 0 0 0 0 0 0
0 0 0 0 0 0 -0 0 0 0 0 -0 -0 -0 -0 -0 0 0 0 0 0 0 0 0 0 0 0 0 0 0 0 0 0 0 0 0 0 0
0 0 0 0 0 0 -0 0 0 0 -0 0 0 0 0 0 0 0 0 0 0 0 0 0 -0 -0 -0 0 0 0 0 0 0 0 0 0 0 0
0 0 0 0 0 0 0 0 0 0 0 0 -0 0 0 0 0 0 0 0 0 0 0 0 0 0 0 0 0 0 0 0 -0 0 0 0 0 0
0 0 0 0 0 0 0 0 0 0 0 0 0 0 0 0 0 0 0 0 0 0 -0 0 0 -0 0 0 0 0 0 0 0 0 0 0 0 0
0 0 0 0 0 0 0 0 0 0 0 0 0 0 0 0 0 0 0 0 0 -0 -0 -0 0 0 0 0 0 0 0 0 0 0 0 0 0 0
0 0 0 0 0 0 0 0 -0 0 0 -0 0 0 0 0 0 0 0 0 0 -0 -0 0 0 0 0 -0 0 0 0 0 0 0 0 0 0 0
0 0 0 0 0 0 0 0 -0 -0 0 0 0 0 0 0 0 0 0 0 0 -0 -0 0 0 0 0 0 0 0 0 0 0 0 0 0 0 -0
Wind_Speed_500mb
28 30 33 36 37 40 42 43 44 52 59 58 64 60 60 57 54 50 50 51 58 57 52 57 60 62 57 55 54 52 56 57 58 60 58 55 56 57
27 29 32 35 36 40 42 45 48 54 60 56 67 63 62 60 62 61 59 65 56 56 60 66 61 59 56 51 48 47 50 51 50 51 53 53 54 52
34 37 39 40 40 42 44 47 51 52 62 62 58 65 66 64 58 57 53 50 45 47 49 57 50 53 51 47 43 46 48 51 54 59 59 59 58 59
43 43 44 43 45 45 48 52 54 56 61 68 63 65 64 59 60 57 54 44 45 40 36 38 47 47 45 43 45 47 52 60 59 60 58 59 58 59
53 53 52 49 49 50 50 52 54 56 59 65 68 61 63 57 57 54 51 44 40 46 43 41 46 43 43 45 48 52 57 60 59 57 58 59 61 60
66 63 60 59 58 56 53 52 53 57 59 65 71 67 64 59 56 55 50 44 41 40 38 41 46 44 43 46 52 57 58 58 60 64 64 61 62 58
76 74 72 70 69 66 60 60 61 63 66 68 71 68 66 63 57 54 53 50 49 48 40 34 45 46 46 49 55 55 54 56 59 60 63 65 64 64
86 84 80 79 77 76 79 76 72 66 69 73 76 72 59 64 60 56 57 62 66 57 53 50 39 37 33 33 38 48 48 50 50 53 55 57 62 61
88 90 91 88 84 76 70 69 64 65 66 72 79 76 70 61 59 61 58 52 43 36 43 54 49 39 36 34 49 47 50 44 45 49 50 53 52 53
86 85 87 90 87 82 75 72 69 64 63 71 73 71 68 63 60 59 51 58 46 31 34 37 36 32 32 31 43 44 39 37 38 41 44 45 46 47
71 78 84 86 82 76 73 77 72 69 66 72 74 73 72 72 61 57 57 47 36 34 37 32 31 26 27 25 30 29 33 35 33 31 33 35 36 42
75 72 76 77 71 76 74 74 73 70 63 63 61 69 65 65 50 51 41 42 41 22 36 33 25 18 20 20 22 18 18 29 25 22 18 21 28 36
60 57 56 63 78 81 85 76 71 66 75 75 65 62 58 55 64 54 48 66 49 43 40 23 19 15 13 11 13 17 15 16 20 18 15 12 21 31
52 58 57 48 41 55 58 64 72 78 76 73 59 49 46 49 59 64 70 70 42 33 22 23 12 11 10 11 12 15 12 7 14 17 16 18 10 13
46 51 49 42 51 52 62 69 70 66 62 58 51 39 41 44 76 70 46 46 51 36 25 20 15 9 6 10 10 13 4 11 10 13 14 14 15 13
32 37 45 46 42 44 49 55 56 53 55 50 46 35 47 45 53 56 44 46 43 36 27 18 13 6 8 5 6 11 10 8 10 8 7 19 18 14
29 21 25 31 35 38 41 41 41 48 50 62 55 37 44 44 35 38 38 38 31 29 22 18 12 3 2 2 6 7 3 5 10 11 13 24 22 18
30 29 28 28 33 34 36 30 18 32 43 73 51 37 30 34 32 35 37 33 28 24 23 16 13 6 3 2 12 5 5 3 2 6 12 18 22 20
41 30 25 25 28 27 43 26 10 28 66 55 50 36 24 34 41 38 35 25 24 24 22 15 9 9 9 6 6 16 9 7 8 8 17 18 21 27
44 28 22 23 26 25 26 25 11 9 66 68 52 25 32 32 40 41 29 24 21 19 18 14 12 10 8 6 11 19 23 17 11 14 26 27 32 35
35 26 24 22 23 20 16 26 21 10 58 67 66 38 40 34 33 27 24 23 23 20 15 13 15 17 8 13 10 13 10 19 26 16 31 40 42 46
27 26 24 21 22 19 21 18 19 9 30 67 58 35 23 26 26 21 16 16 19 14 12 9 7 9 11 11 15 20 16 13 18 17 33 50 58 45
28 21 22 17 19 21 25 11 13 9 19 51 64 18 23 21 21 19 17 16 13 13 13 14 16 13 16 19 21 20 19 12 22 31 52 39 55 53
Wind_Direction_500mb
270 274 275 273 272 274 274 273 277 281 280 284 284 284 282 281 281 281 283 284 288 273 259 251 253 253 264 257 253 254 259 260 262 265 269 270 264 260
268 266 269 272 271 273 274 275 274 277 278 281 284 284 283 280 280 280 283 286 283 280 265 246 251 249 254 248 249 251 254 258 260 263 264 264 262 258
259 260 262 266 269 270 272 273 275 277 279 287 285 287 285 284 282 274 275 278 281 287 278 240 242 241 244 246 245 247 251 260 266 268 265 263 262 261
255 258 261 265 264 268 273 274 274 274 278 283 283 284 286 284 279 280 278 272 271 269 269 239 234 233 236 239 241 246 256 267 270 265 261 261 263 262
258 259 262 264 264 267 266 269 272 275 276 279 283 283 284 285 285 280 274 271 260 257 250 238 232 234 239 243 248 255 264 268 265 262 260 259 262 264
260 261 263 263 264 263 265 267 273 277 278 278 278 279 280 286 282 279 272 263 256 248 244 234 237 241 241 244 256 266 267 265 261 260 260 260 260 263
262 263 264 263 261 257 260 264 268 275 276 275 274 274 276 278 277 278 270 263 262 246 238 235 240 246 244 254 264 265 264 264 264 262 260 259 260 261
264 263 261 261 259 259 260 262 265 272 274 270 270 272 273 278 276 274 270 273 266 256 237 234 227 224 231 243 252 261 269 269 270 268 265 262 259 258
262 260 258 257 257 254 258 264 268 277 280 274 265 266 271 274 278 274 266 269 255 253 224 235 227 228 236 239 249 261 265 270 273 272 267 261 257 250
264 263 262 260 251 250 254 257 263 271 274 272 267 266 269 267 273 270 260 269 246 219 216 221 211 225 228 236 254 259 256 263 281 279 268 261 251 242
267 263 260 259 251 247 249 250 261 269 276 272 270 268 267 270 261 253 258 250 216 214 214 212 208 215 229 236 247 251 246 260 283 290 266 259 249 237
272 264 254 254 257 249 248 249 260 266 275 277 272 268 264 260 240 231 232 194 175 174 228 205 201 205 222 220 212 268 282 265 280 284 281 256 241 232
272 275 272 259 250 247 249 249 256 263 273 275 274 268 260 245 240 236 214 173 216 195 206 188 195 203 205 194 212 226 241 289 296 286 278 277 254 237
269 266 263 259 243 229 231 243 257 265 263 263 262 249 231 236 226 177 166 165 178 193 215 177 186 193 211 230 231 211 234 290 307 304 258 252 260 233
265 266 264 257 258 257 256 258 262 253 251 254 241 226 213 180 173 176 186 198 181 179 177 184 176 205 207 208 227 219 237 269 344 279 257 230 237 237
269 265 258 259 251 247 250 253 246 242 244 237 209 192 173 163 169 183 187 190 185 186 185 186 180 189 211 266 227 232 241 251 295 308 208 179 164 152
268 259 262 251 253 252 248 245 243 242 223 193 196 190 185 202 202 198 196 187 185 176 175 182 196 211 324 250 192 212 189 308 277 309 200 180 162 161
257 252 259 258 254 250 246 239 240 226 222 193 205 215 209 209 205 209 202 192 189 185 180 185 181 188 342 16 181 97 41 16 345 197 167 171 176 179
249 229 252 255 252 247 216 236 233 207 189 197 206 221 220 207 200 200 200 194 193 193 181 189 205 212 253 211 222 208 160 53 76 199 205 190 184 181
230 226 244 251 248 248 228 220 202 229 193 195 202 222 204 201 199 202 199 200 193 184 186 203 215 236 263 275 216 226 226 240 276 274 206 190 179 169
220 225 233 251 244 251 227 209 194 209 200 206 215 209 237 198 195 202 201 203 181 184 193 208 213 210 229 260 256 218 241 259 250 262 209 194 182 164
214 220 225 237 241 234 217 206 177 214 210 214 219 232 208 192 187 194 182 180 182 189 208 191 218 205 225 259 252 249 251 259 224 240 218 193 175 161
189 208 212 228 225 213 203 207 178 242 208 217 226 243 192 184 186 189 194 202 201 209 209 222 251 220 251 271 270 246 231 249 240 200 192 187 177 177
Wind_Speed_850mb
28 30 33 36 37 40 42 43 44 52 59 58 64 60 60 57 54 50 50 51 58 57 52 57 60 62 57 55 54 52 56 57 58 60 58 55 56 57
27 29 32 35 36 40 42 45 48 54 60 56 67 63 62 60 62 61 59 65 56 56 60 66 61 59 56 51 48 47 50 51 50 51 53 53 54 52
34 37 39 40 40 42 44 47 51 52 62 62 58 65 66 64 58 57 53 50 45 47 49 57 50 53 51 47 43 46 48 51 54 59 59 59 58 59
43 43 44 43 45 45 48 52 54 56 61 68 63 65 64 59 60 57 54 44 45 40 36 38 47 47 45 43 45 47 52 60 59 60 58 59 58 59
53 53 52 49 49 50 50 52 54 56 59 65 68 61 63 57 57 54 51 44 40 46 43 41 46 43 43 45 48 52 57 60 59 57 58 59 61 60
66 63 60 59 58 56 53 52 53 57 59 65 71 67 64 59 56 55 50 44 41 40 38 41 46 44 43 46 52 57 58 58 60 64 64 61 62 58
76 74 72 70 69 66 60 60 61 63 66 68 71 68 66 63 57 54 53 50 49 48 40 34 45 46 46 49 55 55 54 56 59 60 63 65 64 64
86 84 80 79 77 76 79 76 72 66 69 73 76 72 59 64 60 56 57 62 66 57 53 50 39 37 33 33 38 48 48 50 50 53 55 57 62 61
88 90 91 88 84 76 70 69 64 65 66 72 79 76 70 61 59 61 58 52 43 36 43 54 49 39 36 34 49 47 50 44 45 49 50 53 52 53
86 85 87 90 87 82 75 72 69 64 63 71 73 71 68 63 60 59 51 58 46 31 34 37 36 32 32 31 43 44 39 37 38 41 44 45 46 47
71 78 84 86 82 76 73 77 72 69 66 72 74 73 72 72 61 57 57 47 36 34 37 32 31 26 27 25 30 29 33 35 33 31 33 35 36 42
75 72 76 77 71 76 74 74 73 70 63 63 61 69 65 65 50 51 41 42 41 22 36 33 25 18 20 20 22 18 18 29 25 22 18 21 28 36
60 57 56 63 78 81 85 76 71 66 75 75 65 62 58 55 64 54 48 66 49 43 40 23 19 15 13 11 13 17 15 16 20 18 15 12 21 31
52 58 57 48 41 55 58 64 72 78 76 73 59 49 46 49 59 64 70 70 42 33 22 23 12 11 10 11 12 15 12 7 14 17 16 18 10 13
46 51 49 42 51 52 62 69 70 66 62 58 51 39 41 44 76 70 46 46 51 36 25 20 15 9 6 10 10 13 4 11 10 13 14 14 15 13
32 37 45 46 42 44 49 55 56 53 55 50 46 35 47 45 53 56 44 46 43 36 27 18 13 6 8 5 6 11 10 8 10 8 7 19 18 14
29 21 25 31 35 38 41 41 41 48 50 62 55 37 44 44 35 38 38 38 31 29 22 18 12 3 2 2 6 7 3 5 10 11 13 24 22 18
30 29 28 28 33 34 36 30 18 32 43 73 51 37 30 34 32 35 37 33 28 24 23 16 13 6 3 2 12 5 5 3 2 6 12 18 22 20
41 30 25 25 28 27 43 26 10 28 66 55 50 36 24 34 41 38 35 25 24 24 22 15 9 9 9 6 6 16 9 7 8 8 17 18 21 27
44 28 22 23 26 25 26 25 11 9 66 68 52 25 32 32 40 41 29 24 21 19 18 14 12 10 8 6 11 19 23 17 11 14 26 27 32 35
35 26 24 22 23 20 16 26 21 10 58 67 66 38 40 34 33 27 24 23 23 20 15 13 15 17 8 13 10 13 10 19 26 16 31 40 42 46
27 26 24 21 22 19 21 18 19 9 30 67 58 35 23 26 26 21 16 16 19 14 12 9 7 9 11 11 15 20 16 13 18 17 33 50 58 45
28 21 22 17 19 21 25 11 13 9 19 51 64 18 23 21 21 19 17 16 13 13 13 14 16 13 16 19 21 20 19 12 22 31 52 39 55 53
Wind_Direction_850mb
270 274 275 273 272 274 274 273 277 281 280 284 284 284 282 281 281 281 283 284 288 273 259 251 253 253 264 257 253 254 259 260 262 265 269 270 264 260
268 266 269 272 271 273 274 275 274 277 278 281 284 284 283 280 280 280 283 286 283 280 265 246 251 249 254 248 249 251 254 258 260 263 264 264 262 258
259 260 262 266 269 270 272 273 275 277 279 287 285 287 285 284 282 274 275 278 281 287 278 240 242 241 244 246 245 247 251 260 266 268 265 263 262 261
255 258 261 265 264 268 273 274 274 274 278 283 283 284 286 284 279 280 278 272 271 269 269 239 234 233 236 239 241 246 256 267 270 265 261 261 263 262
258 259 262 264 264 267 266 269 272 275 276 279 283 283 284 285 285 280 274 271 260 257 250 238 232 234 239 243 248 255 264 268 265 262 260 259 262 264
260 261 263 263 264 263 265 267 273 277 278 278 278 279 280 286 282 279 272 263 256 248 244 234 237 241 241 244 256 266 267 265 261 260 260 260 260 263
262 263 264 263 261 257 260 264 268 275 276 275 274 274 276 278 277 278 270 263 262 246 238 235 240 246 244 254 264 265 264 264 264 262 260 259 260 261
264 263 261 261 259 259 260 262 265 272 274 270 270 272 273 278 276 274 270 273 266 256 237 234 227 224 231 243 252 261 269 269 270 268 265 262 259 258
262 260 258 257 257 254 258 264 268 277 280 274 265 266 271 274 278 274 266 269 255 253 224 235 227 228 236 239 249 261 265 270 273 272 267 261 257 250
264 263 262 260 251 250 254 257 263 271 274 272 267 266 269 267 273 270 260 269 246 219 216 221 211 225 228 236 254 259 256 263 281 279 268 261 251 242
267 263 260 259 251 247 249 250 261 269 276 272 270 268 267 270 261 253 258 250 216 214 214 212 208 215 229 236 247 251 246 260 283 290 266 259 249 237
272 264 254 254 257 249 248 249 260 266 275 277 272 268 264 260 240 231 232 194 175 174 228 205 201 205 222 220 212 268 282 265 280 284 281 256 241 232
272 275 272 259 250 247 249 249 256 263 273 275 274 268 260 245 240 236 214 173 216 195 206 188 195 203 205 194 212 226 241 289 296 286 278 277 254 237
269 266 263 259 243 229 231 243 257 265 263 263 262 249 231 236 226 177 166 165 178 193 215 177 186 193 211 230 231 211 234 290 307 304 258 252 260 233
265 266 264 257 258 257 256 258 262 253 251 254 241 226 213 180 173 176 186 198 181 179 177 184 176 205 207 208 227 219 237 269 344 279 257 230 237 237
269 265 258 259 251 247 250 253 246 242 244 237 209 192 173 163 169 183 187 190 185 186 185 186 180 189 211 266 227 232 241 251 295 308 208 179 164 152
268 259 262 251 253 252 248 245 243 242 223 193 196 190 185 202 202 198 196 187 185 176 175 182 196 211 324 250 192 212 189 308 277 309 200 180 162 161
257 252 259 258 254 250 246 239 240 226 222 193 205 215 209 209 205 209 202 192 189 185 180 185 181 188 342 16 181 97 41 16 345 197 167 171 176 179
249 229 252 255 252 247 216 236 233 207 189 197 206 221 220 207 200 200 200 194 193 193 181 189 205 212 253 211 222 208 160 53 76 199 205 190 184 181
230 226 244 251 248 248 228 220 202 229 193 195 202 222 204 201 199 202 199 200 193 184 186 203 215 236 263 275 216 226 226 240 276 274 206 190 179 169
220 225 233 251 244 251 227 209 194 209 200 206 215 209 237 198 195 202 201 203 181 184 193 208 213 210 229 260 256 218 241 259 250 262 209 194 182 164
214 220 225 237 241 234 217 206 177 214 210 214 219 232 208 192 187 194 182 180 182 189 208 191 218 205 225 259 252 249 251 259 224 240 218 193 175 161
189 208 212 228 225 213 203 207 178 242 208 217 226 243 192 184 186 189 194 202 201 209 209 222 251 220 251 271 270 246 231 249 240 200 192 187 177 177